Preview of NWS' New Version of Forecast
This preview is not operational and should not be used for support decisions.
Latest weather observations around

Bar Harbor, Hancock County-Bar Harbor Airport (KBHB)

Using International System of Units (Switch to English Units)
Date/ Time (EDT) Wind (kph) Vis. (km) Weather Sky Cond. Temp (°C) Rel. Humidity Wind Chill (°C) Heat Index (°C) Pressure Precip. (cm)
Air Dwpt 6 hour Altimeter (hPa) Sea level (hPa) 1 hr 3 hr 6 hr
Max Min
Aug 21 06:56 SSW 15 16.09 Clear CLR 19 17     90%     1016.3 1016.5      
Aug 21 05:56 S 9 16.09 Clear CLR 17 16     93%     1016.3 1016.4      
Aug 21 04:56 Calm 16.09 Clear CLR 17 16     93%     1016.6 1016.8      
Aug 21 03:56 Calm 16.09 Clear CLR 14 14     100%     1016.9 1017      
Aug 21 02:56 Calm 16.09 Clear CLR 16 14     93%     1017.3 1017.2      
Aug 21 01:56 SSW 8 16.09 Clear CLR 17 14     86%     1016.6 1016.9      
Aug 21 00:56 Calm 16.09 Clear CLR 17 14     86%     1017.3 1017.4      
Aug 20 23:56 SW 11 16.09 Clear CLR 18 14     78%     1017.6 1017.5      
Aug 20 22:56 SSW 9 16.09 Clear CLR 18 15     84%     1017.3 1017.3      
Aug 20 21:56 Calm 16.09 Clear CLR 18 15     81%     1017.3 1017.2      
Aug 20 20:56 SSW 5 16.09 Clear CLR 19 16     81%     1017.3 1017.3      
Aug 20 19:56 SSW 5 16.09 Clear CLR 21 16     71%     1016.9 1017.1      
Aug 20 18:56 SW 8 16.09 Clear CLR 24 15     57%   24 1016.6 1016.7      
Aug 20 17:56 W 8 16.09 Clear CLR 27 14     45%   27 1016.6 1016.7      
Aug 20 16:56 SSW 13 16.09 Clear CLR 26 16     52%   26 1016.6 1016.8      
Aug 20 15:56 NNW 9 16.09 Clear CLR 27 14     45%   27 1016.3 1016.5      
Aug 20 14:56 11 16.09 Clear CLR 27 14     45%   27 1015.9 1016.1      
Aug 20 13:56 N 9 16.09 Clear CLR 27 15     49%   27 1016.6 1016.5      
Aug 20 12:56 N 13 16.09 Clear CLR 26 14     47%   26 1016.9 1016.9      
Aug 20 11:56 NNW 8 16.09 Mostly Clear FEW041 26 12     43%   25 1017.3 1017.5      
Aug 20 10:56 NW 8 16.09 Partly Cloudy SCT030 24 18     67%   25 1017.3 1017.5      
Aug 20 09:56 8 16.09 Clear CLR 23 18     71%   24 1017.3 1017.3      
Aug 20 08:56 N 11 16.09 Clear CLR 22 18     79%   22 1016.9 1017      
Aug 20 07:56 NNW 8 16.09 Clear CLR 19 18     93%     1016.6 1016.8     0
Aug 20 06:56 5 16.09 Clear CLR 18 18     100%     1015.9 1016.1      
Aug 20 06:34 Calm 4.83 Fog/Mist FEW002 16 16     100%     1015.9        
Aug 20 06:32 Calm 1.21 Fog/Mist VV002 16 16     100%     1015.9        
Aug 20 06:22 Calm 0.4 Fog VV002 16 16     100%     1015.6        
Aug 20 06:19 Calm 0.8 Fog CLR 16 16     100%     1015.6        
Aug 20 06:17 Calm 2.01 Fog/Mist CLR 16 16     100%     1015.6        
Aug 20 05:56 Calm 12.87 Partly Cloudy SCT001 16 16     100%     1015.2 1015.3      
Aug 20 05:53 Calm 4.83 Fog/Mist BKN001 16 16     100%     1015.2        
Aug 20 05:51 Calm 1.61 Fog/Mist BKN001 16 16     100%     1015.2        
Aug 20 05:28 Calm 0.4 Fog BKN001 15 15     100%     1014.9        
Aug 20 05:20 Calm 1.21 Fog/Mist BKN001 16 16     100%     1014.6        
Aug 20 04:56 Calm 0.4 Fog BKN001 16 16     100%     1014.6 1014.5 0 0  
Aug 20 04:50 Calm 0.4 Fog BKN001 16 16     100%     1014.6   0    
Aug 20 04:45 Calm 1.21 Fog/Mist BKN001 16 16     100%     1014.2   0    
Aug 20 04:39 Calm 2.01 Fog/Mist BKN001 16 16     100%     1014.2   0    
Aug 20 04:35 Calm 1.21 Fog/Mist BKN001 16 16     100%     1014.2   0    
Aug 20 04:16 Calm 0.4 Fog OVC001 16 16     100%     1014.2   0    
Aug 20 03:56 Calm 0.8 Fog OVC001 17 16     96%     1013.9 1014      
Aug 20 03:37 SSW 8 0.4 Fog OVC001 17 17     100%     1013.6        
Aug 20 03:12 Calm 0.4 Fog OVC003 17 17     100%     1013.6        
Aug 20 02:56 Calm 0.8 Fog OVC003 17 17     100%     1013.6 1013.5      
Aug 20 02:25 Calm 0.4 Clear   17 17     100%     1013.2        
Aug 20 02:10 Calm 0.8 Clear   17 17     100%     1013.2        
Aug 20 01:56 Calm 0.4 Clear   17 17     100%     1012.9 1013.1     0
Aug 20 00:56 Calm 0.4 Fog OVC003 18 18     97%     1012.5 1012.7      
Aug 19 23:56 SSW 8 0.4 Fog OVC003 18 18     100%     1012.5 1012.7      
Aug 19 22:56 SW 5 0.4 Fog OVC003 19 19     100%     1012.5 1012.7   0  
Aug 19 22:38 SSW 11 0.4 Fog OVC003 19 19     100%     1012.5        
Aug 19 22:28 SSW 9 1.21 Fog/Mist OVC003 19 19     100%     1012.5        
Aug 19 22:20 SW 5 2.82 Fog/Mist OVC003 19 19     100%     1012.5        
Aug 19 22:14 SW 5 6.44 Fog/Mist BKN003 19 19     100%     1012.5        
Aug 19 21:56 SSW 13 12.87 Partly Cloudy FEW003 SCT090 20 19     96%     1012.5 1012.5      
Aug 19 21:53 SW 11 12.87 Partly Cloudy FEW003 SCT090 20 19     94%     1012.5        
Aug 19 20:56 WSW 5 12.87 Clear CLR 20 19     96%     1012.5 1012.5 0    
Aug 19 19:56 SW 9 16.09 Light Rain FEW070 SCT100 21 20     96%     1011.5 1011.7 0   0
Aug 19 18:56 SSW 9 12.87 Partly Cloudy SCT003 20 19     96%     1011.9 1011.9      
Aug 19 17:56 SSW 13 6.44 Fog/Mist OVC003 20 20     100%     1011.9 1011.8      
Aug 19 17:09 SSW 21 6.44 Fog/Mist OVC003 21 20     94%     1011.9        
Aug 19 16:56 SSW 21 4.02 Fog/Mist OVC003 21 21     97%     1011.9 1011.8      
Aug 19 15:56   16.09 Cloudy OVC003 22 21     93%   22 1011.9 1011.9      
Aug 19 14:56 SSW 17 16.09 Partly Cloudy SCT005 23 21     87%   23 1012.5 1012.6      
Aug 19 13:56 S 21 16.09 Cloudy OVC005 22 21     91%   23 1013.6 1013.5     0
Aug 19 12:56 S 11 16.09 Cloudy OVC005 21 19     90%     1013.9 1014      
Aug 19 11:56 ESE 5 16.09 Cloudy OVC005 19 18     93%     1014.2 1014.4      
Aug 19 11:21 E 5 16.09 Cloudy OVC005 19 18     94%     1014.6        
Aug 19 10:56 E 5 16.09 Cloudy OVC003 18 17     96%     1014.6 1014.8   0  
Aug 19 09:56 E 11 16.09 Cloudy OVC003 17 17     97%     1014.9 1015 0    
Aug 19 08:56 E 9 16.09 Light Rain OVC005 16 16     100%     1015.2 1015.4 0    
Aug 19 07:56 E 8 16.09 Light Rain OVC003 16 16     100%     1015.6 1015.6 0   0
Aug 19 06:56 E 8 16.09 Cloudy OVC003 16 16     100%     1015.6 1015.7 0    
Aug 19 05:56 NNE 5 16.09 Light Rain OVC003 16 16     100%     1015.6 1015.6 0    
Aug 19 05:26 E 8 4.83 Light Rain and Fog/Mist OVC003 16 15     94%     1015.6   0    
Aug 19 05:17 Calm 2.01 Light Rain and Fog/Mist OVC003 16 15     94%     1015.6   0    
Aug 19 05:09 ENE 5 1.21 Light Rain and Fog/Mist OVC003 16 15     94%     1015.6   0    
Aug 19 04:56 Calm 0.4 Fog OVC003 15 15     100%     1015.6 1015.7      
Aug 19 03:56 Calm 0.4 Fog OVC003 16 16     100%     1015.6 1015.6      
Aug 19 03:12 Calm 0.4 Fog OVC003 16 16     100%     1015.9        
Aug 19 02:59 Calm 1.21 Fog/Mist OVC003 16 16     100%     1015.9        
Aug 19 02:56 Calm 2.01 Fog/Mist OVC003 16 16     100%     1015.9 1016      
Aug 19 02:54 Calm 2.82 Fog/Mist OVC003 16 16     100%     1015.9        
Aug 19 02:02 E 5 4.83 Fog/Mist OVC003 16 16     100%     1015.9        
Aug 19 01:58 E 8 2.01 Fog/Mist OVC003 16 16     100%     1015.9        
Aug 19 01:56 E 9 1.21 Fog/Mist OVC003 16 16     100%     1015.9 1016      
Aug 19 00:56 E 5 0.4 Fog OVC003 16 16     100%     1016.3 1016.2      
Aug 19 00:33 ESE 5 0.4 Fog OVC003 16 16     100%     1016.3        
Aug 19 00:11 ESE 5 0.8 Fog OVC003 16 16     100%     1016.6        
Aug 18 23:56 E 5 0.4 Fog OVC003 17 17     100%     1016.3 1016.5      
Aug 18 23:42 ESE 5 1.21 Fog/Mist OVC003 17 17     100%     1016.3        
Aug 18 23:36 Calm 2.82 Fog/Mist OVC003 17 17     100%     1016.6        
Aug 18 22:56 Calm 12.87 Mostly Cloudy BKN003 17 17     100%     1016.9 1016.9      
Aug 18 22:40 Calm 16.09 Partly Cloudy SCT005 17 17     100%     1016.9        
Aug 18 22:26 Calm 16.09 Mostly Cloudy BKN005 17 17     100%     1016.6        
Aug 18 21:56 SSW 5 16.09 Mostly Clear FEW003 17 16     96%     1016.6 1016.7      
Aug 18 21:10 Calm 16.09 Clear CLR 17 17     100%     1016.6        
Aug 18 20:56 ENE 5 4.02 Fog/Mist CLR 18 17     96%     1016.6 1016.7      
Aug 18 19:56 Calm 16.09 Clear CLR 19 18     96%     1015.9 1016.1      
Aug 18 18:56 Calm 16.09 Clear CLR 21 19     87%     1015.9 1016.1      
Aug 18 17:56 SSE 8 16.09 Clear CLR 23 19     79%   24 1015.6 1015.8      
Aug 18 17:31 SSE 5 16.09 Mostly Clear FEW027 23 19     78%   23 1015.9        
Aug 18 16:56 SE 5 16.09 Cloudy OVC025 22 19     87%   22 1015.9 1016.1      
Aug 18 15:56 SSE 9 16.09 Cloudy OVC025 22 19     84%   23 1016.3 1016.4      
Aug 18 14:56 S 8 16.09 Cloudy OVC027 22 19     84%   23 1016.3 1016.5      
Aug 18 13:56 Calm 16.09 Cloudy OVC021 22 19     87%   22 1016.3 1016.5     0
Aug 18 13:09 E 8 16.09 Cloudy OVC015 20 18     88%     1016.6        
Aug 18 12:56 ESE 11 16.09 Cloudy OVC013 20 18     90%     1016.3 1016.5      
Aug 18 12:51 ESE 11 16.09 Cloudy OVC013 19 18     94%     1016.3        
Aug 18 11:56 E 8 16.09 Cloudy OVC009 20 18     90%     1016.3 1016.5      
Aug 18 11:35 Calm 16.09 Cloudy OVC009 20 18     88%     1016.3        
Aug 18 10:56 ESE 9 16.09 Cloudy OVC011 20 18     90%     1016.6 1016.8   0  
Aug 18 10:47 ESE 8 16.09 Cloudy OVC013 20 18     88%     1016.6        
Aug 18 09:56 Calm 16.09 Mostly Cloudy BKN015 19 18     93%     1016.6 1016.8      
Aug 18 09:23 E 8 16.09 Cloudy SCT004 OVC015 19 18     94%     1016.6        
Aug 18 08:56 5 16.09 Cloudy BKN004 OVC017 18 17     96%     1016.6 1016.9 0    
Aug 18 08:47 E 8 16.09 Cloudy BKN004 OVC017 18 17     94%     1016.9   0    
Aug 18 08:10 SE 5 16.09 Cloudy SCT004 OVC017 18 18     100%     1016.9   0    
May 15 02:38 Calm 4.83 Fog/Mist SCT008 7 7     100%     1011.5        
May 13 23:56 SSW 22 16.09 Cloudy OVC004 7 6     96% 3   1019.3 1019.6      
May 13 20:29 SSW 21 16.09 Cloudy OVC004 7 7     100% 4   1019.7        
May 12 15:56 SSW 26 16.09 Clear CLR 12 -2     39%     1020.3 1020.8      
May 12 04:56 Calm 16.09 Clear CLR 1 -3     78%     1023 1023.4      
May 11 09:56 NW 15 16.09 Clear CLR 11 -1     46%     1011.9 1012.1      
Jun 11 23:56 WSW 9 16.09 Clear   17 13     80%     1010.5 1010.9      
Notice The following observation data may not be complete
Jun 11 10:56   16.09 Clear CLR   15      %     1011.2 1011.5      
Jun 10 19:56 SSW 15 16.09 Clear CLR 15 11     75%     1014.6 1014.9      
Jun 09 05:56 E 9 16.09 Cloudy FEW050 BKN090 OVC110 11 7     79%     1007.5 1007.7 0    
Jun 08 08:56 SSW 17 16.09 Clear CLR 17 9     62%     1015.9 1016.2      
Jun 07 10:56 NNE 8 16.09 Clear CLR 18 5     42%     1013.6 1013.8      
Jun 06 03:12 NE 15 16.09 Mostly Cloudy BKN015 8 5     81% 5   1015.6